Wind_Speed
3 3 3 3 3 3 3 3 3 3 3 3 3 3 2 3 2 3 3 2 2 2 3 3 3 3 3 2 2 2 2 2 2 2 2 2 2 3 3 4 4 4 4
3 3 3 2 2 2 3 2 2 2 2 2 2 2 2 2 2 2 2 2 2 2 2 2 3 3 3 3 2 2 2 2 3 2 2 2 2 2 3 3 4 4 4
3 3 2 2 2 2 3 2 3 2 2 2 2 2 2 2 2 2 1 1 1 1 1 2 3 3 3 3 2 1 1 2 2 2 2 2 2 2 2 3 4 4 4
3 3 2 2 2 2 2 2 2 2 2 1 1 1 1 1 1 1 1 1 0 1 0 1 2 2 1 1 1 1 1 2 2 1 2 2 2 2 3 3 3 4 4
4 2 2 2 1 1 1 1 2 1 1 1 1 1 1 1 1 1 2 1 1 1 1 1 1 1 1 1 1 1 2 2 2 2 2 3 3 3 4 4 4 4 4
4 2 1 1 1 0 1 1 1 1 1 1 1 0 1 1 2 1 2 2 2 2 2 2 2 2 2 2 2 2 3 3 3 3 3 3 4 4 4 5 5 5 5
4 2 1 1 0 1 1 0 1 1 0 0 0 1 1 2 3 3 2 2 2 2 2 2 3 4 4 3 3 4 4 4 4 4 4 4 4 4 5 6 6 6 7
4 2 2 1 1 2 2 1 2 1 1 1 1 1 1 2 3 4 4 3 3 4 4 4 4 4 4 4 5 5 4 6 6 5 5 5 5 5 5 6 7 7 8
3 2 2 1 1 2 3 2 2 2 2 2 2 2 2 3 4 4 4 4 4 5 5 6 6 6 5 5 6 6 6 6 7 7 6 7 7 7 7 7 7 7 8
3 3 2 2 2 3 3 3 3 3 3 3 3 3 4 4 4 4 4 5 5 6 6 7 7 7 7 7 8 8 8 8 8 8 8 9 8 8 8 9 9 9 9
3 3 3 2 2 3 3 3 4 4 4 4 4 5 5 5 5 5 5 5 6 7 7 7 7 8 8 9 10 10 10 10 10 10 10 11 11 11 11 11 11 11 11
3 3 4 3 3 3 3 4 4 5 5 5 5 6 6 6 6 7 7 6 7 7 8 9 9 9 10 10 11 12 12 12 12 12 12 13 13 13 13 13 13 13 13
4 4 4 5 4 4 4 5 5 6 6 6 6 7 7 8 9 8 9 9 9 9 10 10 10 10 11 12 12 13 13 14 14 14 14 14 14 14 14 15 15 15 16
4 4 5 4 4 4 5 5 6 7 8 8 8 8 8 9 9 10 10 10 11 11 12 12 12 12 12 12 13 14 15 15 15 16 16 16 16 16 16 16 17 17 18
4 4 4 5 5 5 6 7 8 9 8 8 9 9 10 10 11 11 11 11 12 12 13 14 14 14 14 14 14 14 15 16 17 17 18 18 19 18 18 19 19 19 19
4 4 5 5 6 7 7 8 8 8 8 9 10 10 11 11 13 13 13 13 13 13 14 15 16 16 15 15 15 16 16 17 18 18 19 19 20 20 20 21 20 20 20
5 5 6 6 6 7 7 7 8 9 9 10 10 11 11 11 12 12 13 13 13 14 14 14 15 16 16 16 17 17 18 19 19 19 20 21 22 23 23 23 22 22 22
6 6 6 7 7 7 7 8 8 9 10 11 12 12 12 12 13 13 13 14 14 14 14 14 15 16 17 17 17 18 18 19 20 21 22 23 24 24 25 25 26 26 26
7 7 7 7 8 8 8 9 9 10 10 11 12 12 13 14 14 14 15 15 16 16 16 16 17 18 18 18 17 18 18 19 20 21 22 23 24 25 26 27 28 28 28
9 9 9 9 9 9 10 10 10 10 11 12 13 13 13 14 15 15 16 16 16 17 17 18 18 19 19 18 19 19 20 21 22 23 24 24 24 25 27 28 29 30 30
10 10 9 10 10 11 11 11 11 11 12 13 13 14 14 14 15 15 15 16 17 17 17 17 18 18 18 19 19 20 21 21 22 23 24 25 26 27 28 29 30 31 32
12 12 12 11 11 11 12 12 13 13 13 13 14 14 14 15 15 16 16 16 17 17 18 18 18 18 19 20 21 21 22 22 23 24 24 25 27 28 29 30 31 32 33
12 12 12 12 12 12 12 13 14 13 13 13 14 14 14 15 17 17 17 18 19 19 19 19 19 19 20 21 22 23 23 24 24 24 25 26 28 28 29 31 32 33 34
13 13 13 13 13 13 14 14 14 13 13 14 14 15 15 16 17 18 18 19 19 19 20 20 20 21 22 23 23 24 24 25 26 26 27 27 28 29 30 31 32 34 35
13 13 13 14 14 14 14 14 14 14 14 15 15 16 16 17 18 18 19 19 19 20 20 21 21 22 23 23 24 24 25 25 26 27 28 29 30 31 32 33 34 34 35
14 14 14 14 14 14 14 14 14 15 15 15 16 16 17 18 18 19 19 20 20 21 22 22 23 23 24 24 25 26 27 27 28 28 29 30 32 33 34 35 36 37 37
Wind_Direction
54 52 52 36 37 35 34 45 51 57 75 90 92 86 82 89 82 76 72 60 43 50 55 54 59 62 67 70 82 100 116 127 132 152 144 140 149 161 168 178 187 197 205
52 58 64 48 40 34 33 39 46 60 85 87 75 73 67 68 60 57 58 57 50 46 52 69 71 75 74 75 78 92 103 129 130 134 145 160 159 159 172 192 199 210 217
38 45 56 54 46 44 40 56 60 67 80 77 73 70 65 52 43 47 59 75 24 41 60 66 93 88 71 68 78 94 125 152 145 144 152 160 162 169 194 202 206 215 219
22 29 37 41 41 40 50 54 56 79 89 88 81 55 50 30 15 354 333 309 285 307 41 95 103 89 68 58 76 96 146 161 179 190 193 196 202 212 218 215 221 225 225
9 20 21 28 33 53 73 65 71 88 95 80 81 45 17 4 3 347 339 324 283 281 270 280 257 278 296 302 274 221 187 191 197 215 221 229 228 232 232 231 236 237 235
2 21 33 37 42 174 118 107 116 102 78 62 57 32 0 316 308 323 330 322 307 293 292 274 267 264 269 276 268 254 227 217 218 226 233 237 239 241 241 243 245 249 247
359 1 10 12 55 191 190 211 226 214 128 43 262 328 326 319 321 320 299 296 290 288 282 282 269 270 265 269 279 281 251 227 231 236 241 244 245 247 250 250 249 254 253
356 344 335 330 265 208 220 236 242 229 233 235 256 296 319 317 321 318 307 288 277 283 278 278 267 272 272 272 273 277 255 239 243 246 248 252 254 256 258 257 255 257 258
349 330 312 317 273 250 249 248 244 241 247 254 262 280 299 305 311 313 303 293 280 280 279 285 283 276 272 272 273 272 258 248 249 250 251 256 260 262 261 262 262 260 260
335 310 301 305 275 267 265 253 243 252 262 270 270 281 290 297 296 299 295 288 286 287 285 284 283 284 275 268 270 269 260 254 257 256 257 259 261 261 261 263 263 262 263
330 317 298 293 281 269 273 264 256 265 269 269 271 281 288 288 292 294 294 293 286 285 284 283 284 281 280 273 269 270 263 258 258 260 261 262 262 261 261 263 263 263 263
317 320 295 284 282 271 278 275 267 271 267 267 275 285 287 284 287 287 288 290 287 285 286 288 284 281 283 280 273 266 262 258 261 261 262 265 265 265 264 265 265 265 265
310 303 294 279 273 271 271 276 275 274 273 274 279 284 285 284 284 284 284 284 284 283 285 286 285 284 279 277 275 266 262 262 263 263 264 266 268 267 267 267 266 266 268
316 299 293 282 270 270 270 273 277 277 273 274 277 281 281 285 287 288 286 284 284 284 283 284 283 282 278 278 275 272 267 266 266 266 265 266 267 266 266 268 269 268 268
319 305 298 283 270 276 277 278 279 279 277 277 282 284 282 284 286 288 286 285 286 284 283 282 283 281 278 279 278 274 272 270 268 267 266 267 266 267 268 268 268 268 270
313 307 300 294 284 281 277 279 283 285 281 282 283 283 285 286 286 286 287 288 287 285 283 283 282 281 280 279 278 276 275 274 270 267 267 268 269 268 269 269 269 270 271
303 302 301 297 292 286 284 285 284 283 283 284 285 286 287 288 289 287 286 287 287 287 289 287 286 286 282 279 277 276 276 272 269 268 269 270 271 269 269 269 270 271 272
298 296 299 297 295 297 299 298 292 286 285 284 285 284 285 285 288 287 285 286 286 289 290 289 289 289 287 285 282 282 280 274 271 270 270 271 272 271 271 270 271 271 272
296 293 296 296 293 295 298 296 294 293 290 289 287 287 285 286 288 287 286 287 288 290 291 288 288 289 289 287 284 285 282 280 277 275 275 274 273 272 272 271 272 273 272
294 291 290 291 291 291 292 290 290 293 295 292 293 291 289 289 289 288 287 288 289 291 293 292 291 290 289 290 288 288 285 282 280 280 279 278 276 275 275 275 274 274 274
292 289 289 287 287 288 288 289 289 293 295 294 294 293 291 292 293 292 292 290 291 292 294 293 291 288 288 288 290 289 287 287 285 283 281 279 279 279 278 277 277 276 275
288 287 286 287 289 289 288 290 290 292 295 294 294 293 292 294 293 294 295 295 294 292 292 292 289 288 287 286 288 289 289 288 286 284 284 282 281 279 279 278 277 277 276
287 285 286 288 290 291 291 291 291 293 295 297 297 296 296 298 296 296 295 296 297 293 293 292 290 290 290 289 290 292 291 290 288 287 287 285 283 283 282 280 279 279 279
284 284 284 286 289 290 289 291 296 296 296 297 298 301 301 301 300 300 300 298 296 295 295 294 291 291 292 291 291 291 291 291 291 289 288 287 286 284 283 282 282 281 280
281 284 286 290 293 292 291 291 293 294 294 296 297 300 302 303 304 304 304 303 301 298 295 294 293 292 292 292 293 293 293 293 292 291 289 287 286 285 285 285 285 284 283
281 284 287 291 295 296 294 293 292 293 294 295 298 300 302 303 305 307 306 307 306 303 298 294 293 293 294 295 295 295 293 292 292 291 289 287 287 286 286 286 286 286 285
Height
5905 5905 5905 5904 5904 5904 5903 5903 5902 5902 5902 5902 5902 5901 5901 5900 5900 5900 5899 5899 5898 5898 5897 5897 5896 5896 5895 5895 5895 5895 5894 5894 5894 5894 5894 5894 5894 5893 5894 5893 5894 5894 5894
5905 5905 5905 5904 5904 5904 5904 5903 5903 5902 5902 5902 5902 5902 5901 5901 5900 5900 5899 5899 5899 5898 5898 5897 5897 5896 5896 5895 5895 5895 5895 5895 5894 5894 5894 5894 5894 5893 5894 5893 5893 5894 5894
5905 5905 5905 5905 5904 5904 5903 5903 5903 5903 5902 5902 5902 5902 5902 5901 5901 5900 5899 5899 5898 5898 5898 5897 5897 5897 5897 5896 5896 5895 5895 5895 5895 5894 5894 5894 5894 5894 5893 5893 5893 5893 5893
5905 5905 5905 5905 5904 5904 5903 5903 5903 5903 5903 5903 5902 5902 5902 5901 5901 5900 5899 5898 5898 5898 5898 5897 5897 5897 5897 5896 5896 5895 5895 5895 5895 5894 5894 5894 5894 5894 5893 5893 5893 5893 5893
5904 5904 5904 5904 5904 5903 5903 5903 5903 5903 5903 5903 5902 5902 5902 5901 5901 5900 5899 5898 5898 5898 5898 5897 5897 5897 5897 5896 5896 5895 5895 5894 5894 5894 5894 5894 5893 5893 5893 5893 5893 5892 5892
5904 5904 5903 5903 5903 5903 5903 5903 5903 5903 5903 5903 5902 5902 5901 5901 5900 5899 5899 5898 5898 5898 5897 5897 5897 5896 5896 5896 5895 5895 5894 5894 5894 5894 5893 5893 5893 5893 5892 5892 5892 5892 5891
5903 5903 5902 5902 5902 5902 5902 5902 5902 5902 5902 5902 5902 5902 5901 5901 5900 5899 5899 5898 5898 5897 5897 5896 5896 5896 5895 5895 5895 5894 5893 5893 5893 5893 5893 5892 5892 5892 5892 5891 5891 5891 5890
5902 5902 5902 5901 5901 5901 5901 5902 5901 5902 5902 5902 5902 5901 5901 5901 5900 5899 5898 5898 5897 5897 5896 5895 5895 5895 5894 5894 5894 5893 5892 5892 5892 5892 5892 5891 5891 5891 5890 5890 5889 5889 5889
5901 5901 5901 5901 5900 5900 5900 5900 5901 5901 5901 5901 5901 5901 5901 5900 5900 5899 5898 5897 5897 5896 5895 5894 5894 5893 5893 5892 5892 5892 5891 5891 5891 5890 5890 5890 5890 5889 5889 5888 5888 5887 5887
5901 5900 5900 5900 5900 5900 5899 5899 5900 5900 5900 5900 5900 5900 5900 5899 5899 5898 5898 5897 5896 5895 5894 5893 5892 5892 5891 5891 5890 5890 5889 5889 5889 5889 5888 5888 5888 5887 5887 5886 5886 5885 5885
5900 5899 5899 5899 5899 5898 5898 5898 5899 5899 5899 5898 5898 5898 5898 5898 5898 5897 5896 5895 5895 5894 5893 5892 5891 5890 5889 5889 5888 5888 5887 5887 5887 5886 5886 5886 5885 5885 5884 5884 5883 5883 5882
5899 5899 5898 5898 5897 5897 5897 5897 5897 5897 5897 5897 5896 5896 5896 5896 5896 5895 5895 5894 5893 5892 5891 5890 5889 5888 5887 5886 5885 5885 5885 5884 5884 5884 5883 5883 5882 5882 5881 5881 5881 5880 5879
5898 5898 5897 5897 5896 5896 5896 5896 5896 5895 5895 5895 5895 5894 5894 5894 5893 5893 5892 5891 5891 5890 5889 5888 5886 5885 5884 5883 5882 5882 5881 5881 5881 5880 5880 5879 5879 5878 5878 5877 5877 5876 5876
5897 5897 5896 5895 5895 5895 5894 5894 5894 5893 5893 5893 5892 5892 5892 5891 5891 5890 5889 5889 5888 5887 5885 5884 5883 5882 5881 5880 5879 5878 5878 5877 5877 5876 5876 5875 5875 5874 5874 5873 5873 5872 5872
5896 5895 5895 5894 5894 5893 5893 5892 5892 5891 5891 5891 5890 5890 5889 5888 5888 5887 5886 5885 5885 5883 5882 5881 5879 5878 5877 5876 5876 5875 5874 5873 5872 5872 5871 5871 5871 5870 5869 5869 5868 5867 5867
5895 5894 5894 5893 5892 5892 5891 5890 5890 5889 5888 5888 5887 5887 5886 5885 5884 5883 5883 5882 5880 5879 5878 5877 5875 5874 5873 5872 5872 5871 5870 5869 5868 5867 5867 5866 5866 5865 5864 5864 5863 5862 5861
5894 5893 5892 5892 5891 5890 5889 5888 5887 5886 5886 5885 5884 5884 5883 5882 5881 5880 5879 5878 5877 5875 5874 5873 5871 5870 5869 5868 5867 5866 5865 5863 5863 5862 5862 5861 5860 5859 5859 5858 5857 5856 5855
5892 5891 5891 5890 5889 5887 5886 5885 5884 5884 5883 5882 5881 5880 5879 5879 5878 5876 5875 5874 5873 5871 5870 5869 5867 5866 5864 5863 5862 5861 5860 5859 5858 5857 5856 5855 5854 5853 5853 5852 5851 5849 5848
5890 5889 5888 5887 5886 5885 5884 5883 5882 5881 5880 5879 5877 5876 5875 5875 5874 5873 5871 5870 5869 5868 5866 5865 5863 5861 5860 5858 5857 5856 5855 5854 5852 5851 5850 5849 5847 5847 5846 5845 5844 5842 5841
5888 5887 5886 5885 5884 5882 5881 5880 5879 5878 5877 5875 5874 5872 5871 5871 5870 5868 5867 5866 5865 5863 5862 5860 5859 5857 5855 5854 5852 5851 5849 5848 5847 5845 5844 5842 5841 5839 5838 5837 5836 5835 5833
5885 5884 5883 5882 5881 5880 5878 5877 5876 5875 5873 5872 5870 5869 5868 5867 5866 5864 5863 5862 5860 5859 5857 5856 5854 5852 5851 5849 5847 5846 5844 5843 5841 5839 5837 5836 5834 5833 5831 5829 5828 5826 5824
5881 5880 5880 5879 5877 5876 5875 5874 5873 5871 5870 5868 5867 5865 5864 5863 5862 5860 5859 5857 5855 5854 5852 5851 5849 5847 5846 5844 5842 5840 5838 5836 5835 5833 5831 5829 5827 5825 5823 5821 5819 5817 5815
5878 5877 5876 5875 5874 5873 5872 5870 5869 5867 5866 5864 5863 5861 5860 5858 5857 5855 5854 5852 5851 5849 5847 5846 5844 5842 5841 5839 5837 5835 5832 5830 5828 5826 5824 5822 5819 5817 5815 5813 5810 5808 5806
5874 5873 5872 5871 5870 5869 5868 5866 5865 5863 5862 5860 5859 5858 5856 5854 5852 5851 5849 5847 5845 5844 5842 5840 5839 5837 5834 5832 5830 5828 5826 5823 5821 5818 5816 5814 5811 5809 5806 5804 5801 5799 5796
5869 5869 5868 5867 5866 5865 5863 5862 5861 5860 5858 5857 5855 5853 5852 5850 5848 5846 5844 5842 5840 5838 5836 5834 5833 5830 5828 5826 5824 5821 5819 5816 5814 5811 5808 5805 5803 5800 5797 5794 5791 5789 5786
5865 5864 5864 5863 5862 5861 5859 5858 5857 5855 5854 5853 5851 5849 5847 5846 5844 5841 5839 5836 5834 5832 5830 5827 5826 5824 5821 5819 5816 5814 5811 5809 5806 5803 5799 5797 5794 5791 5788 5785 5781 5778 5775